Winslow, AZ

3:27 PM MST on May 22, 2018 (GMT -0700)
Winslow-Lindbergh Regional

Weather History for KINW - November, 2012

Change the Weather History Date:

Friday, November 9, 2012

  Actual Average Record
Temperature  
Mean Temperature 57 °F 47 °F  
Max Temperature 67 °F 63 °F 77 °F (1980)
Min Temperature 46 °F 30 °F 16 °F (1926)
Degree Days  
Heating Degree Days 8 18  
Month to date heating degree days 101 149  
Since 1 July heating degree days 325 455  
Cooling Degree Days 0 0  
Month to date cooling degree days 0 0  
Year to date cooling degree days 1442 1208  
Growing Degree Days 6 (Base 50)    
Moisture  
Dew Point 36 °F    
Average Humidity 57    
Maximum Humidity 86    
Minimum Humidity 27    
Precipitation  
Precipitation 0.20 in 0.02 in 0.98 in (1923)
Month to date precipitation 0.20 0.16  
Year to date precipitation 5.07 6.10  
Sea Level Pressure  
Sea Level Pressure 29.72 in    
Wind  
Wind Speed 22 mph (South)    
Max Wind Speed 49 mph    
Max Gust Speed 62 mph    
Visibility 7 miles    
Events Rain    
T = Trace of Precipitation, MM = Missing Value Source: NWS Daily Summary

Daily Weather History Graph

Daily Weather History Graph

Search for Another Location

Airport or City:

Astronomy

Nov. 09, 2012 Rise Set
Actual Time 6:52 AM MST 5:21 PM MST
Civil Twilight 6:25 AM MST 5:47 PM MST
Nautical Twilight 5:55 AM MST 6:17 PM MST
Astronomical Twilight 5:25 AM MST 6:47 PM MST
Moon 2:05 AM MST (11/9) 2:27 PM MST (11/9)
Length of Visible Light 11h 22m
Length of Day
10h 28m
Waning Crescent, 22% of the Moon is Illuminated
Nov 9
Waning Crescent
Nov 13
New
Nov 20
First Quarter
Nov 28
Full
Dec 6
Last Quarter

Hourly Weather History & Observations

Time (MST) Temp. Windchill Dew Point Humidity Pressure Visibility Wind Dir Wind Speed Gust Speed Precip Events Conditions
12:56 AM 52.0 °F - 39.0 °F 61% 29.79 in 10.0 mi ESE 8.1 mph - N/A   Clear
1:56 AM 51.1 °F - 39.0 °F 63% 29.78 in 10.0 mi SSE 11.5 mph - N/A   Clear
2:56 AM 51.1 °F - 37.9 °F 61% 29.78 in 10.0 mi SE 13.8 mph - N/A   Clear
3:56 AM 48.9 °F - 37.0 °F 64% 29.76 in 10.0 mi ESE 11.5 mph - N/A   Clear
4:56 AM 48.0 °F - 37.0 °F 66% 29.78 in 10.0 mi ESE 9.2 mph - N/A   Partly Cloudy
5:56 AM 48.9 °F - 37.0 °F 64% 29.79 in 10.0 mi SE 6.9 mph - N/A   Overcast
6:56 AM 50.0 °F - 37.9 °F 63% 29.78 in 10.0 mi ESE 10.4 mph - N/A   Mostly Cloudy
7:56 AM 53.1 °F - 41.0 °F 64% 29.76 in 10.0 mi SE 5.8 mph - N/A   Clear
8:56 AM 62.1 °F - 39.0 °F 43% 29.72 in 10.0 mi South 26.5 mph 34.5 mph N/A   Clear
9:56 AM 64.0 °F - 39.0 °F 40% 29.71 in 10.0 mi South 26.5 mph 34.5 mph N/A   Scattered Clouds
10:56 AM 64.9 °F - 37.9 °F 37% 29.70 in 6.0 mi South 27.6 mph 47.2 mph N/A   Haze
11:09 AM 66.2 °F - 37.4 °F 35% 29.84 in 7.0 mi South 32.2 mph 43.7 mph N/A   Mostly Cloudy
11:27 AM 64.4 °F - 35.6 °F 34% 29.83 in 2.5 mi SSW 36.8 mph 51.8 mph N/A   Haze
11:31 AM 64.4 °F - 35.6 °F 34% 29.83 in 3.0 mi South 34.5 mph 50.6 mph N/A   Haze
11:40 AM 66.2 °F - 33.8 °F 30% 29.82 in 5.0 mi SSW 31.1 mph 48.3 mph N/A   Haze
11:54 AM 66.2 °F - 33.8 °F 30% 29.80 in 4.0 mi SSW 35.7 mph 49.5 mph N/A   Haze
11:56 AM 66.0 °F - 34.0 °F 30% 29.66 in 4.0 mi SSW 38.0 mph 49.5 mph N/A   Haze
12:10 PM 66.2 °F - 33.8 °F 30% 29.78 in 2.5 mi South 36.8 mph 50.6 mph N/A   Haze
12:19 PM 66.2 °F - 32.0 °F 28% 29.77 in 1.8 mi SSW 35.7 mph 51.8 mph N/A   Haze
12:34 PM 66.2 °F - 30.2 °F 26% 29.76 in 1.0 mi SSW 38.0 mph 58.7 mph N/A   Haze
12:38 PM 66.2 °F - 30.2 °F 26% 29.75 in 0.8 mi SSW 40.3 mph 58.7 mph N/A   Haze
12:48 PM 66.2 °F - 33.8 °F 30% 29.75 in 1.0 mi SSW 47.2 mph 58.7 mph N/A   Haze
12:56 PM 64.9 °F - 33.1 °F 31% 29.60 in 1.0 mi SSW 42.6 mph 58.7 mph N/A   Haze
1:01 PM 66.2 °F - 33.8 °F 30% 29.74 in 1.5 mi SSW 38.0 mph 56.4 mph N/A   Haze
1:34 PM 64.4 °F - 35.6 °F 34% 29.74 in 3.0 mi SSW 35.7 mph 62.1 mph N/A   Haze
1:42 PM 64.4 °F - 35.6 °F 34% 29.74 in 8.0 mi SSW 44.9 mph 56.4 mph N/A   Scattered Clouds
1:56 PM 64.9 °F - 33.1 °F 31% 29.60 in 6.0 mi SSW 43.7 mph 54.1 mph N/A   Haze
2:56 PM 64.0 °F - 33.1 °F 31% 29.59 in 10.0 mi SSW 35.7 mph 50.6 mph N/A   Clear
3:56 PM 62.1 °F - 28.9 °F 29% 29.60 in 10.0 mi SSW 39.1 mph 51.8 mph N/A   Clear
4:56 PM 57.9 °F - 33.1 °F 39% 29.64 in 10.0 mi SSW 28.8 mph 44.9 mph N/A   Clear
5:56 PM 54.0 °F - 37.9 °F 55% 29.65 in 10.0 mi SSW 23.0 mph 33.4 mph N/A   Partly Cloudy
6:56 PM 53.1 °F - 39.9 °F 61% 29.67 in 10.0 mi SSW 20.7 mph 28.8 mph N/A   Scattered Clouds
7:56 PM 51.1 °F - 39.0 °F 63% 29.64 in 10.0 mi South 11.5 mph - 0.00 in   Partly Cloudy
8:56 PM 50.0 °F - 41.0 °F 71% 29.63 in 10.0 mi SW 8.1 mph - 0.00 in   Mostly Cloudy
9:56 PM 48.9 °F - 43.0 °F 80% 29.63 in 10.0 mi South 17.3 mph - 0.03 in Rain Light Rain
10:56 PM 46.9 °F - 43.0 °F 86% 29.65 in 6.0 mi South 12.7 mph - 0.09 in Rain Rain
11:56 PM 46.0 °F 40.6 °F 41.0 °F 83% 29.63 in 10.0 mi South 11.5 mph - 0.08 in Rain Light Rain